Regional Weather Roundup
Issued by NWS

Home | Current Version | Previous Version | Text Only | Print | Product List | Glossary Off
Versions: 1 2 3 4 5 6 7 8 9 10 11 12 13 14 15 16 17 18 19 20 21 22 23 24 25 26 27 28 29 30 31 32 33 34 35 36 37 38 39 40 41 42 43 44 45 46 47 48 49 50

000
ASUS45 KPSR 281510
RWRAZ

ARIZONA HOURLY REGIONAL WEATHER ROUNDUP
NATIONAL WEATHER SERVICE PHOENIX AZ
800 AM MST FRI AUG 28 2015

NOTE: FAIR INDICATES FEW OR NO CLOUDS BELOW 12,000 FEET WITH NO
SIGNIFICANT WEATHER AND/OR OBSTRUCTIONS TO VISIBILITY.

AZZ001>003-036-281600-
NORTHWEST ARIZONA

CITY           SKY/WX    TMP DP  RH WIND       PRES   REMARKS
BULLHEAD CITY  SUNNY     90  57  33 CALM      29.91S
KINGMAN        SUNNY     81  56  42 CALM      30.11R
$$

AZZ004>008-015-016-018-281600-
NORTH CENTRAL ARIZONA

CITY           SKY/WX    TMP DP  RH WIND       PRES   REMARKS
GRAND CANYON   SUNNY     70  51  51 CALM      30.35S
WILLIAMS       SUNNY     68  55  64 CALM      30.41R
PRESCOTT       SUNNY     69  59  70 CALM      30.24R
FLAGSTAFF      SUNNY     63  53  70 CALM      30.38R
PAYSON         SUNNY     73  55  53 CALM      30.24S
PAGE           SUNNY     77  51  40 SE3       30.19R
$$

AZZ009>014-017-281600-
NORTHEAST ARIZONA

CITY           SKY/WX    TMP DP  RH WIND       PRES   REMARKS
WINSLOW        SUNNY     67  57  70 E5        30.25R
SAINT JOHNS    SUNNY     65  55  70 N3        30.30R
WINDOW ROCK    SUNNY     64  48  56 CALM      30.35R
SHOW LOW       SUNNY     64  50  59 CALM      30.34R
$$

AZZ023-281600-
GREATER PHOENIX AREA

CITY           SKY/WX    TMP DP  RH WIND       PRES   REMARKS
PHOENIX        MOSUNNY   86  65  49 E7        29.93S
BUCKEYE        SUNNY     86  64  48 E12       29.93S
GLENDALE       MOSUNNY   88  64  45 CALM      29.95R
LUKE AFB       SUNNY     85  67  53 S1        29.93R
DEER VALLEY    SUNNY     85  61  44 S3        29.95R
SCOTTSDALE     SUNNY     84  65  52 CALM      29.97S
MESA-FALCON    MOSUNNY   84  59  42 NE6       29.95S
MESA-GATEWAY   MOSUNNY   82  63  51 S6        29.98R
CHANDLER       MOSUNNY   86  63  45 CALM      29.95R
$$

AZZ027-028-281600-
SOUTHWEST MARICOPA COUNTY AND PINAL COUNTY

CITY           SKY/WX    TMP DP  RH WIND       PRES   REMARKS
CASA GRANDE    SUNNY     84  61  45 CALM      29.95S
GILA BEND      FAIR      89  62  40 NE2       29.90S
$$

AZZ503-504-507>509-281600-
SOUTHEAST ARIZONA

CITY           SKY/WX    TMP DP  RH WIND       PRES   REMARKS
TUCSON         SUNNY     79  63  57 CALM      30.05F
DAVIS-MONTHAN  SUNNY     79  64  58 SE5       30.04S
RYAN FIELD     SUNNY     81  66  61 E3        30.04S
NOGALES        MOSUNNY   73  60  63 S7        30.13R
SIERRA VISTA   CLOUDY    70  63  79 CALM      30.19S
DOUGLAS        CLOUDY    72  59  63 CALM      30.15R
SAFFORD        MOSUNNY   74  63  68 S3        30.08R
$$

AZZ020-021-025-026-031-281600-
SOUTHWEST ARIZONA

CITY           SKY/WX    TMP DP  RH WIND       PRES   REMARKS
YUMA           SUNNY     93  67  42 E3        29.85R
$$

CAZ031-033-041-043-047-048-061-281600-
SOUTHERN CALIFORNIA

CITY           SKY/WX    TMP DP  RH WIND       PRES   REMARKS
DOWNTOWN L.A.  SUNNY     78  65  63 CALM      29.89R
L.A. AIRPORT   MOSUNNY   76  66  71 CALM      29.90R
SAN DIEGO      SUNNY     77  68  73 CALM      29.91R
BURBANK        SUNNY     79  59  50 CALM      29.92
ONTARIO        SUNNY     83  56  39 CALM      29.93R
RIVERSIDE      SUNNY     78  59  51 CALM      29.93R
PALM SPRINGS   SUNNY     91  56  30 CALM      29.88R
EL CENTRO NAS  SUNNY     88  74  63 S3        29.84R
IMPERIAL       SUNNY     90  71  53 SE7       29.82R
BLYTHE         SUNNY     90  66  45 E5        29.87R
NEEDLES        SUNNY     94  58  29 N5        29.91R
$$

NVZ020-UTZ003-281600-
SOUTHERN NEVADA-UTAH

CITY           SKY/WX    TMP DP  RH WIND       PRES   REMARKS
LAS VEGAS      MOSUNNY   88  51  28 CALM      29.97R
SALT LAKE CITY MOSUNNY   72  49  44 S12       30.20R
$$

NMZ009-TXZ055-281600-
NEW MEXICO-WEST TEXAS

CITY           SKY/WX    TMP DP  RH WIND       PRES   REMARKS
ALBUQUERQUE    PTSUNNY   71  56  58 CALM      30.24R
EL PASO        MOSUNNY   80  57  45 CALM      30.10R
$$


........................KEY........................
SKY/WX - SKY CONDITION/WEATHER
TMP    - TEMPERATURE IN FAHRENHEIT
DP     - DEW POINT IN FAHRENHEIT
RH     - RELATIVE HUMIDITY IN PERCENT
WIND   - DIRECTION AND SPEED IN MILES PER HOUR (MPH)
VRB    - VARIABLE WIND DIRECTION
PRES   - MEAN SEA LEVEL PRESSURE IN INCHES OF MERCURY
         F - FALLING PRESSURE   R - RISING PRESSURE
         S - STEADY PRESSURE
VSB    - VISIBILITY IN MILES
HX     - HEAT INDEX IN FAHRENHEIT
WCI    - WIND CHILL INDEX IN FAHRENHEIT
TC     - TEMPERATURE IN CELSIUS WHICH IS ALSO KNOWN AS
         TEMPERATURE IN CENTIGRADE
AFB    - AIR FORCE BASE
         LUKE AFB IS LUKE AIR FORCE BASE
         DAVIS-MONTHAN IS DAVIS-MONTHAN AIR FORCE BASE
NAS    - NAVAL AIR STATION
         EL CENTRO NAS IS EL CENTRO NAVAL AIR STATION
N/A    - NOT AVAILABLE




USA.gov is the U.S. government's official web portal to all federal, state and local government web resources and services.